Regional Weather Roundup
Issued by NWS

Home | Current Version | Previous Version | Graphics & Text | Print | Product List | Glossary On
Versions: 1 2 3 4 5 6 7 8 9 10 11 12 13 14 15 16 17 18 19 20 21 22 23 24 25 26 27 28 29 30 31 32 33 34 35 36 37 38 39 40 41 42 43 44 45 46 47 48 49 50
000
ASUS45 KCYS 011310
RWRWY

WYOMING REGIONAL WEATHER ROUNDUP
NATIONAL WEATHER SERVICE CHEYENNE WY
600 AM MST SUN FEB 01 2015

NOTE:  "FAIR" INDICATES FEW OR NO CLOUDS BELOW 12,000 FEET
WITH NO SIGNIFICANT WEATHER AND/OR OBSTRUCTIONS TO VISIBILITY.

WYZ001-011400-
YELLOWSTONE NATIONAL PARK

CITY           SKY/WX    TMP DP  RH WIND       PRES   REMARKS
LK YELLOWSTONE   N/A      2  -2  83 VRB3      30.13S
W YELLOWSTONE  NOT AVBL

$$
WYZ002>013-054>058-071-098>099-011400-
NORTHERN WYOMING

CITY           SKY/WX    TMP DP  RH WIND       PRES   REMARKS
JACKSON        FAIR       1   0  92 N9        30.16S WCI -14
CODY           CLOUDY    10  10 100 NE8       30.20S WCI  -1
GREYBULL       FAIR      12   6  77 W3        30.27R
WORLAND        CLOUDY    15   9  76 NE7       30.25R WCI   5
SHERIDAN       CLOUDY    10   3  73 NW10      30.31R WCI  -4
BUFFALO        MOCLDY     7   3  84 NW15G24   30.21R WCI -10
GILLETTE       CLOUDY     6   2  83 N12       30.24R FOG     WCI  -9
HULETT           N/A    N/A N/A N/A MISG        N/A
NEWCASTLE      FAIR       7   0  72 MISG      30.21R

$$
WYZ014>020-022>026-101>103-011400-
CENTRAL WYOMING

CITY           SKY/WX    TMP DP  RH WIND       PRES   REMARKS
BIG PINEY      FAIR      10   4  76 N9        30.10R WCI  -3
PINEDALE       FAIR       5   1  85 CALM      30.09S
DUBOIS         FAIR      19   9  63 N3        30.07R
LANDER         CLOUDY    22  18  85 N5        30.13R WCI  16
RIVERTON       CLOUDY    21  16  81 E3        30.15R
CASPER         CLOUDY    12   7  80 NE6       30.17R WCI   3
DOUGLAS        FLURRIES  14   7  73 NW18      30.18R WCI  -3

$$
WYZ021-027>030-104>119-011400-
SOUTHERN WYOMING

CITY           SKY/WX    TMP DP  RH WIND       PRES   REMARKS
EVANSTON       FAIR      21  17  84 SW8       30.14R WCI  11
FORT BRIDGER   FAIR      26  16  67 W14G20    30.14R WCI  14
ROCK SPRINGS   FAIR      22  10  60 NW12      30.10R WCI  10
DIXON          FAIR      17  14  90 NE3       30.13R
RAWLINS        CLOUDY    20  15  81 NW8       30.08S WCI  10
SARATOGA       FAIR      16  12  86 CALM      30.07S
LARAMIE        FLURRIES  18  13  80 NW16G25   30.00R WCI   3
CHEYENNE       LGT SNOW  15  11  83 N10       30.02S FOG     WCI   2
TORRINGTON     CLOUDY    19   8  62 NW22G30   30.15R WCI   2
PINE BLUFFS    CLOUDY    19  14  79 N17G28    30.08S WCI   4

$$


USA.gov is the U.S. government's official web portal to all federal, state and local government web resources and services.